Charter Quote
Worldwide +44-20-3874-8091 Call
Select Language Lang
SAFETY RELIABILITY EXPERIENCE

Davison Aaf Airport (KDAA) - Jet Charter Services

AIRPORT INFORMATION
ICAOKDAA
IATADAA
LOCATIONFort Belvoir, VA, United States
FACILITY TYPEAIRPORT
Runway Length (ft) Width (ft) Surface Type Elevation (ft)
14/32 5618 74 ASPH 73.96721

At Paramount Business Jets you can hire chartered private jets to and from Davison Aaf Airport with as little as 4 hours of notice. All flights booked via Paramount Business Jets are operated by certified direct air carriers that meet and exceed the FAA part 135 and 121 protocol or a foreign equivalent safety authority. Furthermore, Paramount Business Jets subscribes to ARGUS for their third party safety checks of operators, aircraft, and crews prior each and every flight to and from Davison Aaf Airport and worldwide.

  • Quote a trip using Davison Aaf Airport or call us 24/7 - 365 days a year at +44-20-3874-8091.
Questions? Call +44-20-3874-8091

METAR Weather Data at Davison Aaf Airport, KDAA, DAA

STATIONKDAA
OBSERVEDWed Mar 20, 01:56 UTC
NOWWed Mar 20, 02:48 UTC
AGE52 min ago
WINDcalm
VISIBILITY10 miles
CLOUDSclear skies
TEMP39°F (4°C)
DEWPT18°F (-8°C)
HUMIDITY42%
BAROMETER1030 hPa (30.42 in Hg)
METARKDAA 200156Z AUTO 00000KT 10SM CLR 04/M08 A3042 RMK AO2 SLP305 T00351079 $

Call us on +44-20-3874-8091 (24 Hours) to Hire a Private Jet or Get a Quick Quote.

Find Airports Near any Location

Processing
...